Temp
9 10 13 15 12 12 13 14 14 14 14 15 15 15 15 15 15 15 15 15 16 16 16 16 16 16 16 16 16 16 16 17 17 16 16 17 16 16 16 16 16 16 16
6 9 12 13 12 13 13 14 14 15 15 15 15 15 15 15 15 15 15 15 15 15 16 16 15 15 16 16 16 16 16 16 16 16 16 16 16 16 16 17 16 16 16
5 9 11 12 13 13 13 13 14 14 15 15 15 15 15 15 15 15 15 15 15 15 15 15 15 15 15 15 16 16 16 16 16 16 15 15 16 16 16 16 16 16 16
5 8 11 12 12 13 13 13 14 14 14 14 15 16 15 15 15 15 15 15 15 15 15 15 15 15 15 15 15 15 16 16 16 16 15 15 15 16 16 16 17 17 17
6 8 10 11 12 13 13 13 13 13 13 14 14 15 15 15 15 15 15 15 14 14 15 15 15 15 15 15 15 15 15 16 16 16 15 15 15 15 16 16 17 18 18
7 8 10 10 12 12 13 13 13 13 13 13 14 14 14 15 15 15 14 15 14 15 15 15 15 15 15 15 15 16 16 15 16 16 15 16 15 15 15 16 16 17 17
7 8 9 10 11 11 12 13 13 13 12 12 13 13 13 14 14 14 15 14 14 14 15 15 15 15 15 15 15 15 16 16 16 16 15 15 15 15 15 15 16 17 16
7 8 9 10 10 11 12 12 12 13 13 13 13 13 13 13 14 14 14 14 14 14 14 15 15 15 15 15 15 15 15 16 16 16 15 15 15 15 15 15 16 16 16
7 8 9 10 10 11 12 12 12 13 13 13 13 12 12 12 13 14 14 14 14 14 13 14 14 15 15 15 15 15 15 15 15 15 15 15 15 14 15 15 15 15 16
7 8 9 9 10 10 11 11 12 12 12 12 12 13 12 12 13 13 13 13 14 13 13 13 14 14 14 14 15 15 15 15 15 15 15 14 15 15 15 15 15 15 15
7 8 8 8 9 9 10 10 11 11 11 12 12 12 12 12 12 12 12 12 12 13 13 13 13 14 14 14 14 14 14 15 14 14 14 14 14 14 14 15 15 15 15
6 6 7 7 8 8 9 9 10 10 10 11 11 12 12 12 12 12 12 13 13 13 13 13 12 13 13 13 13 14 14 14 14 14 13 13 14 14 14 15 15 15 15
3 4 5 5 6 6 7 7 8 9 9 9 10 10 10 11 12 12 13 12 13 12 12 12 12 12 12 12 12 13 13 13 13 13 13 13 13 14 15 15 15 15 15
3 3 4 4 4 5 5 6 6 6 7 7 8 9 9 10 10 10 11 12 12 12 13 12 12 12 11 12 12 13 12 12 12 13 13 13 13 14 14 15 15 14 14
2 2 3 3 4 4 4 5 5 5 5 5 6 6 7 8 8 9 9 9 10 10 11 11 12 12 12 12 12 12 13 12 12 12 12 12 14 14 14 14 14 14 14
1 2 2 3 3 3 3 4 4 4 4 4 5 5 5 6 6 7 7 7 8 9 10 10 11 11 12 11 12 11 12 12 12 11 12 12 14 14 14 14 14 14 14
-0 0 1 2 2 3 3 3 3 3 3 4 4 4 4 4 5 5 6 6 7 7 8 9 10 10 10 11 11 11 11 11 11 11 11 12 13 14 14 14 14 15 14
-0 0 1 1 1 2 2 2 3 3 3 3 3 3 3 4 4 4 5 5 6 6 7 7 8 10 10 11 11 10 10 10 11 11 11 11 12 13 14 14 14 14 14
-0 -0 0 0 1 1 1 1 1 1 1 2 2 2 2 2 2 3 3 4 4 5 5 6 6 6 9 9 10 10 10 10 9 10 10 10 11 12 13 13 14 13 14
-2 -1 -1 -1 -0 -0 0 1 1 1 1 1 0 1 1 1 1 1 2 2 3 4 4 4 5 5 6 8 9 9 10 10 10 9 9 10 10 11 12 13 12 12 13
-3 -3 -3 -2 -2 -1 -0 1 1 1 0 0 -0 -1 -1 -1 -0 -0 -0 1 1 1 2 2 3 5 6 5 6 9 9 10 10 9 9 9 9 10 11 12 11 12 12
-3 -3 -3 -2 -2 -2 -2 -2 -2 -2 -1 -2 -1 -1 -2 -2 -2 -2 -2 -1 -1 0 1 1 1 2 4 4 2 5 7 9 10 10 9 8 8 9 11 11 11 11 11
-2 -3 -3 -3 -3 -3 -3 -3 -3 -3 -3 -2 -2 -2 -2 -3 -3 -4 -3 -3 -3 -2 -1 -1 -1 -1 -0 3 1 -0 5 8 10 10 10 10 9 10 11 11 11 11 11
-3 -4 -4 -4 -4 -4 -4 -4 -4 -5 -4 -5 -4 -4 -4 -4 -4 -4 -4 -4 -4 -4 -3 -2 -2 -3 -2 -0 1 2 -0 1 6 10 10 11 11 11 11 10 11 11 11
-3 -4 -4 -4 -4 -5 -5 -5 -5 -6 -6 -6 -6 -5 -4 -5 -5 -5 -5 -5 -5 -5 -4 -4 -3 -3 -3 -3 -2 1 2 2 4 6 9 10 11 11 10 11 10 11 11
-4 -4 -4 -5 -5 -6 -6 -6 -7 -7 -7 -6 -6 -6 -6 -6 -6 -6 -6 -6 -6 -6 -6 -5 -4 -4 -4 -4 -3 -2 -1 -3 1 2 7 9 10 11 11 10 10 10 11
Height
1578 1574 1572 1571 1572 1571 1571 1571 1570 1569 1569 1569 1568 1568 1568 1568 1568 1567 1567 1567 1567 1566 1566 1565 1565 1565 1564 1563 1564 1563 1564 1563 1563 1563 1562 1563 1563 1562 1563 1563 1563 1563 1563
1580 1576 1572 1572 1572 1571 1571 1571 1570 1570 1569 1569 1569 1569 1568 1568 1569 1568 1568 1568 1567 1566 1565 1565 1565 1565 1564 1565 1563 1563 1564 1564 1564 1565 1564 1565 1564 1564 1565 1565 1563 1563 1564
1580 1575 1573 1572 1572 1572 1571 1571 1570 1570 1570 1569 1569 1569 1569 1568 1568 1568 1568 1568 1568 1567 1566 1566 1565 1565 1564 1565 1563 1564 1564 1565 1565 1566 1565 1566 1566 1566 1566 1566 1565 1565 1565
1580 1576 1572 1572 1573 1573 1572 1571 1571 1570 1570 1569 1569 1568 1568 1568 1568 1568 1568 1567 1567 1567 1566 1566 1565 1565 1564 1565 1564 1564 1565 1565 1566 1566 1566 1566 1565 1568 1567 1567 1566 1566 1566
1580 1576 1573 1572 1572 1572 1572 1571 1571 1570 1569 1569 1568 1569 1569 1569 1569 1568 1568 1567 1567 1567 1567 1567 1566 1566 1566 1565 1564 1565 1564 1565 1566 1565 1566 1566 1566 1568 1567 1567 1567 1566 1566
1581 1577 1575 1573 1571 1571 1571 1572 1571 1570 1569 1568 1568 1569 1569 1568 1568 1568 1568 1568 1567 1567 1566 1566 1566 1566 1565 1564 1564 1564 1564 1565 1565 1565 1565 1566 1567 1567 1568 1568 1568 1567 1567
1581 1578 1575 1573 1572 1572 1571 1570 1571 1571 1570 1569 1569 1568 1568 1567 1567 1567 1567 1567 1567 1566 1566 1566 1565 1565 1565 1564 1564 1563 1563 1563 1564 1565 1566 1566 1566 1567 1567 1566 1567 1567 1568
1581 1578 1576 1574 1573 1571 1570 1570 1570 1569 1569 1569 1569 1568 1567 1567 1566 1566 1566 1566 1566 1565 1565 1564 1564 1563 1563 1562 1562 1562 1562 1562 1562 1563 1564 1565 1565 1566 1565 1565 1565 1567 1567
1580 1578 1576 1574 1573 1572 1570 1570 1569 1568 1568 1567 1567 1567 1567 1566 1566 1565 1564 1564 1564 1564 1564 1563 1562 1562 1561 1561 1561 1561 1561 1561 1561 1561 1562 1562 1563 1564 1563 1563 1564 1565 1567
1579 1577 1575 1574 1572 1571 1570 1568 1567 1567 1566 1566 1565 1565 1565 1565 1564 1563 1562 1562 1562 1562 1562 1561 1561 1561 1560 1560 1559 1559 1559 1559 1559 1560 1560 1561 1561 1562 1561 1561 1562 1564 1565
1578 1576 1574 1573 1571 1570 1569 1567 1566 1565 1564 1564 1563 1563 1562 1563 1562 1561 1561 1561 1561 1559 1559 1559 1559 1559 1558 1558 1557 1556 1557 1557 1557 1558 1557 1558 1558 1558 1559 1559 1559 1561 1563
1575 1574 1572 1571 1570 1568 1566 1565 1563 1562 1561 1560 1559 1559 1558 1559 1559 1559 1559 1558 1558 1557 1556 1555 1556 1557 1555 1555 1554 1554 1554 1554 1554 1554 1555 1554 1555 1555 1555 1556 1557 1558 1560
1575 1574 1572 1571 1569 1567 1565 1563 1561 1560 1558 1558 1557 1556 1555 1554 1555 1556 1555 1555 1555 1554 1553 1553 1552 1553 1554 1552 1552 1552 1552 1552 1552 1551 1552 1552 1552 1552 1553 1553 1553 1556 1557
1574 1573 1572 1570 1569 1566 1565 1562 1561 1559 1557 1556 1555 1553 1552 1551 1551 1551 1550 1550 1550 1550 1550 1549 1549 1549 1549 1550 1549 1550 1550 1549 1548 1548 1548 1548 1548 1549 1550 1550 1551 1552 1553
1574 1573 1571 1570 1569 1567 1565 1563 1560 1558 1556 1555 1553 1553 1551 1549 1548 1547 1546 1546 1545 1545 1545 1545 1545 1544 1544 1545 1546 1545 1546 1546 1544 1545 1544 1544 1544 1545 1546 1547 1547 1548 1550
1574 1573 1571 1570 1568 1567 1564 1563 1561 1559 1556 1554 1552 1551 1549 1548 1547 1545 1544 1542 1541 1540 1540 1540 1539 1539 1539 1540 1540 1540 1540 1541 1541 1541 1539 1539 1539 1541 1542 1543 1543 1544 1545
1572 1570 1569 1568 1566 1565 1563 1562 1560 1558 1556 1554 1551 1550 1548 1546 1544 1543 1542 1540 1538 1536 1535 1534 1533 1533 1534 1535 1534 1535 1535 1535 1536 1536 1535 1535 1535 1536 1537 1537 1538 1539 1541
1572 1571 1570 1569 1567 1565 1563 1560 1558 1556 1554 1552 1550 1547 1545 1543 1541 1540 1539 1537 1535 1533 1531 1530 1527 1527 1526 1527 1528 1529 1529 1529 1529 1530 1530 1530 1530 1530 1531 1531 1532 1534 1536
1573 1572 1570 1568 1566 1564 1562 1561 1558 1556 1554 1551 1549 1546 1543 1540 1539 1537 1535 1533 1531 1530 1528 1525 1524 1521 1519 1521 1520 1522 1522 1522 1522 1522 1522 1523 1524 1525 1525 1526 1526 1528 1529
1570 1569 1567 1565 1562 1560 1558 1556 1555 1553 1550 1548 1545 1543 1540 1538 1536 1534 1532 1530 1527 1526 1524 1521 1519 1518 1515 1514 1512 1513 1514 1515 1515 1514 1515 1515 1516 1518 1519 1520 1521 1522 1523
1568 1566 1564 1562 1560 1557 1554 1552 1551 1549 1546 1545 1542 1540 1538 1536 1534 1530 1528 1526 1524 1522 1520 1517 1513 1511 1509 1511 1506 1506 1504 1506 1507 1507 1507 1508 1509 1511 1513 1514 1515 1517 1519
1565 1564 1563 1560 1557 1554 1552 1551 1550 1548 1546 1544 1541 1539 1536 1534 1531 1528 1525 1522 1520 1518 1517 1513 1510 1506 1505 1507 1503 1501 1497 1498 1497 1499 1499 1499 1500 1503 1505 1507 1509 1512 1515
1563 1561 1560 1558 1556 1553 1551 1550 1549 1547 1544 1541 1538 1536 1533 1531 1528 1525 1522 1519 1517 1514 1512 1510 1507 1504 1499 1501 1503 1504 1497 1490 1489 1489 1490 1490 1492 1495 1499 1500 1503 1506 1509
1560 1559 1557 1555 1553 1552 1550 1548 1545 1543 1540 1537 1534 1532 1529 1527 1525 1522 1519 1516 1514 1511 1509 1506 1503 1500 1498 1493 1491 1494 1496 1494 1488 1481 1483 1483 1484 1486 1489 1492 1496 1498 1502
1557 1556 1554 1553 1552 1550 1548 1546 1544 1541 1539 1535 1532 1529 1526 1524 1521 1518 1515 1513 1511 1507 1504 1501 1498 1496 1494 1491 1488 1480 1478 1479 1476 1477 1477 1478 1478 1479 1480 1483 1487 1491 1495
1553 1553 1553 1552 1551 1549 1547 1544 1541 1539 1536 1532 1528 1524 1521 1519 1516 1514 1511 1509 1506 1502 1499 1496 1493 1489 1487 1485 1483 1481 1477 1478 1471 1472 1473 1472 1472 1474 1475 1475 1479 1483 1487
Wind_Speed
24 19 12 8 9 15 10 10 10 10 11 10 11 12 12 12 12 12 11 11 11 11 9 9 8 8 8 7 5 5 4 5 6 9 7 8 9 9 9 9 8 7 7
24 20 10 7 6 8 7 7 8 8 8 8 9 10 12 13 13 14 13 12 11 10 9 8 7 7 8 7 7 5 5 4 6 7 7 7 6 6 5 5 6 5 6
23 22 12 9 8 6 7 7 7 8 7 6 7 8 9 10 12 13 13 13 12 11 10 8 7 8 7 6 7 5 4 3 4 7 7 7 5 1 2 3 4 5 4
22 22 17 9 5 7 8 7 7 8 8 6 5 5 6 8 9 11 12 12 12 11 10 9 8 7 7 7 6 5 4 2 1 5 6 4 3 3 3 1 2 3 5
21 22 18 16 10 5 5 7 7 7 8 7 6 6 7 6 7 9 11 12 12 11 10 9 8 7 6 7 7 5 5 3 1 3 4 1 2 5 5 3 2 3 8
19 20 18 17 14 13 6 7 8 8 7 7 7 7 6 6 6 7 9 11 12 12 11 11 9 8 7 7 6 7 5 4 1 5 5 2 3 7 5 5 3 7 10
18 18 18 16 15 11 11 6 7 9 10 11 9 9 8 7 6 7 7 8 12 13 13 12 11 10 8 7 7 7 8 6 3 5 4 3 4 8 10 7 7 9 9
17 18 17 16 16 13 11 10 9 8 8 9 10 13 10 10 8 8 8 8 11 13 14 14 13 12 11 9 9 9 9 8 7 6 8 5 6 10 12 10 11 12 11
16 16 17 16 15 13 10 8 9 10 10 10 10 11 12 12 10 10 10 11 9 11 13 13 13 13 12 11 10 10 10 10 9 8 9 11 9 11 13 9 13 13 12
14 15 15 15 15 14 15 10 9 10 12 12 12 12 12 13 13 11 11 10 10 8 10 13 14 13 12 11 10 10 10 10 10 9 9 10 8 14 14 11 14 15 16
13 14 15 15 15 14 13 12 11 8 7 10 12 14 14 13 13 12 9 10 11 11 9 12 14 14 14 12 11 11 11 11 10 9 8 13 11 14 16 14 14 17 17
17 17 18 17 17 16 16 14 13 12 12 10 10 9 10 13 14 12 12 10 12 12 10 8 11 14 12 11 11 11 12 11 10 9 13 14 14 15 15 14 14 17 17
20 19 20 20 21 20 19 19 18 17 16 15 14 13 11 10 13 14 15 15 15 15 13 12 9 12 14 10 12 13 13 12 11 12 15 13 16 15 14 13 15 18 19
19 21 21 22 23 23 24 23 23 22 21 20 19 18 17 16 14 13 15 17 17 16 17 18 17 13 13 13 13 15 15 13 14 16 18 19 16 16 15 14 15 17 19
17 19 20 21 22 22 22 23 23 24 24 24 23 22 21 21 20 18 17 17 18 19 17 17 16 18 14 15 19 18 18 19 17 15 16 18 16 15 17 16 16 17 19
15 17 19 20 21 21 22 22 22 22 23 24 25 25 25 25 24 23 23 22 20 18 19 19 24 24 20 18 19 23 22 22 21 21 20 20 19 15 16 18 16 18 20
17 19 21 22 23 23 22 23 23 23 22 22 24 25 26 27 27 26 25 25 25 24 22 21 21 20 24 21 22 23 24 26 23 25 21 22 22 18 18 20 20 21 21
14 16 16 17 17 19 20 22 23 24 24 24 23 23 24 26 27 27 27 27 27 26 25 26 25 24 21 29 24 26 27 25 26 27 27 27 25 23 19 22 22 23 22
10 11 13 15 17 18 18 19 19 20 20 20 22 24 26 26 27 27 28 28 28 28 28 27 27 27 27 27 25 28 29 30 29 30 31 34 32 26 23 21 23 23 24
10 13 16 18 20 22 23 23 23 23 24 24 25 25 26 27 28 28 27 28 28 27 27 29 29 30 25 24 33 37 34 34 32 34 30 30 29 26 24 22 21 23 25
10 14 17 18 20 21 22 23 23 24 26 26 26 26 25 25 26 28 28 28 29 27 27 29 31 32 31 26 21 27 34 34 34 33 32 31 31 31 25 25 22 21 21
12 14 16 18 19 21 22 22 23 23 23 23 24 24 25 25 25 26 28 28 29 30 28 28 30 32 30 26 23 18 24 35 36 34 34 35 33 29 26 26 26 25 21
11 13 14 15 17 18 19 20 20 20 21 22 23 24 26 27 27 26 26 27 28 29 30 29 30 30 34 30 24 16 10 12 23 28 32 30 33 35 29 27 28 28 27
9 10 11 13 15 17 18 19 20 22 24 25 26 27 26 26 26 26 25 26 27 28 29 29 29 30 31 34 32 28 24 28 14 15 22 24 27 31 32 32 34 30 32
6 8 10 12 13 15 16 17 19 21 22 23 24 25 26 25 25 25 26 26 27 28 28 29 30 30 29 33 31 36 39 33 20 27 28 25 24 21 29 31 35 36 34
5 5 7 9 10 12 13 15 18 20 22 24 25 27 27 28 27 26 26 27 27 29 30 30 30 31 31 31 32 30 35 34 31 16 32 36 32 29 24 28 33 34 38
Wind_Direction
11 8 39 64 45 42 34 25 28 34 31 27 25 25 24 20 17 24 29 28 25 21 21 17 18 23 29 29 39 43 42 47 51 49 72 92 112 116 118 111 105 109 106
4 20 31 66 46 48 43 18 20 27 33 37 28 29 24 22 18 11 13 17 20 21 18 22 17 13 21 13 28 28 35 58 58 55 74 82 115 133 137 112 128 120 125
8 28 38 62 45 26 34 17 10 13 19 29 34 29 24 24 17 11 8 8 9 11 12 16 14 10 11 17 15 19 24 55 77 64 78 76 65 131 149 129 132 171 161
13 31 39 69 57 42 30 13 12 3 16 18 15 16 29 21 21 12 7 6 3 2 1 1 7 1 1 7 13 2 1 17 121 99 75 34 67 333 283 263 135 186 175
16 28 39 59 66 45 7 358 355 0 2 358 357 3 360 6 11 10 10 5 359 355 353 349 349 352 346 344 347 340 347 349 40 152 124 33 347 294 289 277 221 166 164
24 29 32 42 51 47 21 357 1 347 347 346 348 350 338 340 351 358 359 358 355 350 345 341 340 337 337 336 325 318 307 310 325 148 155 185 245 273 277 243 228 165 152
34 33 33 34 36 40 39 16 360 3 348 347 341 339 337 327 329 330 339 351 349 348 349 337 331 329 326 320 318 306 298 289 260 194 206 284 265 272 273 240 216 197 187
36 38 38 35 32 25 24 24 10 345 349 348 333 332 331 325 312 315 316 323 337 339 338 335 330 322 318 316 306 297 290 286 277 237 215 254 254 278 283 247 219 212 206
40 37 36 35 33 31 24 4 349 336 334 326 329 340 333 328 312 299 298 306 314 331 330 331 328 321 316 310 302 294 285 278 276 271 229 230 244 267 278 244 223 219 215
38 32 32 29 27 24 23 13 343 334 330 326 326 313 318 324 314 297 292 294 290 303 317 323 321 315 311 309 302 290 285 279 275 271 247 237 251 265 267 255 226 221 220
34 28 23 19 16 14 14 14 10 349 321 307 295 303 302 309 309 307 307 299 294 292 302 321 316 310 305 302 298 289 282 276 274 269 259 240 248 264 262 258 230 221 221
29 27 24 17 13 9 6 1 358 357 356 342 326 314 297 300 294 299 286 280 272 280 285 307 318 312 307 299 293 287 283 276 255 250 255 253 251 248 255 252 236 225 224
33 32 31 30 23 18 14 10 4 358 351 347 340 333 330 308 287 288 280 271 270 267 281 290 293 303 298 290 298 289 283 277 262 248 253 258 257 254 259 255 236 229 226
39 39 37 34 30 26 22 17 14 9 4 355 346 337 331 325 322 298 281 278 271 271 272 279 287 282 286 269 268 278 276 268 260 256 257 259 255 256 254 253 238 230 230
39 37 34 30 27 25 21 18 13 10 6 4 358 353 337 332 330 324 314 293 281 273 270 261 272 277 284 274 254 257 267 261 258 253 251 252 254 253 249 248 241 236 235
35 32 29 26 23 19 17 14 11 7 3 359 356 355 351 345 333 326 323 319 301 289 276 269 264 266 280 287 277 254 254 255 263 258 253 256 256 254 252 246 244 239 239
27 24 21 18 14 10 10 9 6 5 359 354 351 348 347 344 341 337 323 318 315 308 292 277 273 255 262 274 278 278 259 255 258 260 257 256 265 260 249 248 243 246 241
25 22 18 14 10 6 4 1 358 356 354 352 350 346 341 337 336 335 332 325 316 312 305 296 283 267 254 254 270 272 269 261 253 253 256 256 261 263 253 250 245 245 245
20 15 9 6 4 2 1 359 357 355 353 350 346 342 341 338 333 330 330 326 324 313 311 303 289 293 264 261 254 263 270 269 262 254 255 257 256 255 257 250 246 243 246
11 7 2 359 355 353 350 349 348 351 349 350 347 344 341 337 334 331 326 323 321 320 311 306 303 288 292 277 264 259 265 264 267 258 261 261 260 249 251 250 240 249 247
1 0 357 354 352 348 346 342 342 343 343 340 341 342 338 335 331 330 329 324 320 320 318 311 308 302 282 290 282 254 262 260 260 259 261 258 256 255 243 244 235 246 247
353 350 346 346 347 348 348 347 344 339 337 335 332 335 339 337 334 331 329 327 323 318 316 313 309 307 297 293 306 286 267 260 258 262 260 254 254 252 246 233 229 237 234
338 342 348 349 349 349 347 344 340 335 335 334 334 334 336 338 335 333 330 327 323 320 317 315 312 309 306 292 290 283 304 258 250 257 262 259 254 250 247 222 228 230 229
340 349 353 356 356 355 353 351 348 346 342 342 336 334 333 334 335 332 328 325 323 320 317 313 311 307 304 300 290 280 262 276 284 256 260 257 252 248 241 222 220 221 228
340 354 357 355 356 356 358 358 357 355 351 346 339 334 330 331 332 331 329 326 322 320 317 313 309 305 302 301 297 286 288 279 275 261 248 249 255 260 240 229 213 220 228
332 346 347 351 353 356 359 1 1 360 357 353 349 344 339 334 331 331 329 326 324 321 319 315 310 306 303 297 295 288 283 290 278 291 254 247 251 251 261 232 217 218 220